User: anonymous   Login
Location: Arrakis Observatory
(44.1122°N, 95.7153°W)
Time: 13:36:43
(UTC-05:00)
Language:

Iridium 35 - Orbit

View from above orbital plane
View from above orbital plane
View from above satellite
View from above satellite

Ground track
Ground track

The orbit data is extracted from the following two-line orbital elements,

1 24966U 97056B   14303.21338273  .00000533  00000-0  18334-3 0   471
2 24966 086.3986 000.3905 0002282 108.7014 251.4429 14.34221812894793
Epoch (UTC): 30 October 2014 05:07:16
Eccentricity: 0.0002282
inclination: 86.3986°
perigee height: 776 km
apogee height: 779 km
right ascension of ascending node: 0.3905°
argument of perigee: 108.7014°
revolutions per day: 14.34221812
mean anomaly at epoch: 251.4429°
orbit number at epoch: 89479

The dashed part of the orbit path shows where the satellite is in the earth's shadow,  

DLR